| time (UTC) | temp C | wind direction | speed KPH | gust KPH | rain 1hr cm | rain 24hr cm | rain mn cm | humidity % | barometer mb |
| 20260904194859 | 22 | 220 | 12.9 | 0.0 | 0.00 | 0.00 | 0.00 | 50 | 1016.0 |
| 20260904193422 | -17 | 0.0 | 0.0 | 0.00 | 0.00 | 0.00 | |||
| 20260904191859 | 22 | 220 | 12.9 | 0.0 | 0.00 | 0.00 | 0.00 | 50 | 1016.0 |
| 20260904190401 | 22 | 220 | 12.9 | 0.0 | 0.00 | 0.00 | 0.00 | 50 | 1016.0 |
| 20260904184900 | 23 | 220 | 14.5 | 0.0 | 0.00 | 0.00 | 0.00 | 44 | 1016.0 |
| 20260904183359 | 23 | 220 | 14.5 | 0.0 | 0.00 | 0.00 | 0.00 | 44 | 1016.0 |
| 20260904181905 | 23 | 220 | 14.5 | 0.0 | 0.00 | 0.00 | 0.00 | 44 | 1016.0 |
| 20260904180359 | 23 | 220 | 14.5 | 0.0 | 0.00 | 0.00 | 0.00 | 44 | 1016.0 |
| 20260904174859 | 27 | 240 | 14.5 | 0.0 | 0.00 | 0.00 | 0.00 | 37 | 1015.0 |
| 20260904173400 | 27 | 240 | 14.5 | 0.0 | 0.00 | 0.00 | 0.00 | 37 | 1015.0 |
| 20260904171900 | 27 | 240 | 14.5 | 0.0 | 0.00 | 0.00 | 0.00 | 37 | 1015.0 |
| 20260904170400 | 27 | 240 | 14.5 | 0.0 | 0.00 | 0.00 | 0.00 | 37 | 1015.0 |
| 20260904164859 | 28 | 240 | 17.7 | 0.0 | 0.00 | 0.00 | 0.00 | 33 | 1015.0 |
| 20260904163359 | 28 | 240 | 17.7 | 0.0 | 0.00 | 0.00 | 0.00 | 33 | 1015.0 |
| 20260904161900 | 28 | 240 | 17.7 | 0.0 | 0.00 | 0.00 | 0.00 | 33 | 1015.0 |
| 20260904160359 | 28 | 240 | 17.7 | 0.0 | 0.00 | 0.00 | 0.00 | 33 | 1015.0 |
| 20260904154901 | 28 | 300 | 14.5 | 0.0 | 0.00 | 0.00 | 0.00 | 33 | 1015.0 |
| 20260904153402 | 28 | 300 | 14.5 | 0.0 | 0.00 | 0.00 | 0.00 | 33 | 1015.0 |
| 20260904151900 | 28 | 300 | 14.5 | 0.0 | 0.00 | 0.00 | 0.00 | 33 | 1015.0 |
| 20260904150401 | 28 | 300 | 14.5 | 0.0 | 0.00 | 0.00 | 0.00 | 33 | 1015.0 |
| 20260904144900 | 31 | 320 | 14.5 | 0.0 | 0.00 | 0.00 | 0.00 | 29 | 1015.0 |
| 20260904143400 | 31 | 320 | 14.5 | 0.0 | 0.00 | 0.00 | 0.00 | 29 | 1015.0 |
| 20260904141856 | 31 | 320 | 14.5 | 0.0 | 0.00 | 0.00 | 0.00 | 29 | 1015.0 |
| 20260904140409 | 31 | 320 | 14.5 | 0.0 | 0.00 | 0.00 | 0.00 | 29 | 1015.0 |
| 20260904134900 | 30 | 320 | 17.7 | 0.0 | 0.00 | 0.00 | 0.00 | 33 | 1015.0 |
| 20260904133401 | 30 | 320 | 17.7 | 0.0 | 0.00 | 0.00 | 0.00 | 33 | 1015.0 |
| 20260904131859 | 30 | 320 | 17.7 | 0.0 | 0.00 | 0.00 | 0.00 | 33 | 1015.0 |
| 20260904130400 | 30 | 320 | 17.7 | 0.0 | 0.00 | 0.00 | 0.00 | 33 | 1015.0 |
| 20260904124859 | 28 | 300 | 17.7 | 0.0 | 0.00 | 0.00 | 0.00 | 33 | 1016.0 |
| 20260904123359 | 28 | 300 | 17.7 | 0.0 | 0.00 | 0.00 | 0.00 | 33 | 1016.0 |
| 20260904121901 | 28 | 300 | 17.7 | 0.0 | 0.00 | 0.00 | 0.00 | 33 | 1016.0 |
| 20260904120400 | 28 | 300 | 17.7 | 0.0 | 0.00 | 0.00 | 0.00 | 33 | 1016.0 |
| 20260904114900 | 28 | 280 | 17.7 | 0.0 | 0.00 | 0.00 | 0.00 | 37 | 1016.0 |
| 20260904113400 | 28 | 280 | 17.7 | 0.0 | 0.00 | 0.00 | 0.00 | 37 | 1016.0 |
| 20260904111857 | 28 | 280 | 17.7 | 0.0 | 0.00 | 0.00 | 0.00 | 37 | 1016.0 |
| 20260904110523 | -17 | 0.0 | 0.0 | 0.00 | 0.00 | 0.00 | |||
| 20260904104949 | -17 | 0.0 | 0.0 | 0.00 | 0.00 | 0.00 | |||
| 20260904103512 | -17 | 0.0 | 0.0 | 0.00 | 0.00 | 0.00 | |||
| 20260904101906 | 27 | 280 | 14.5 | 0.0 | 0.00 | 0.00 | 0.00 | 42 | 1017.0 |
| 20260904100406 | 27 | 280 | 14.5 | 0.0 | 0.00 | 0.00 | 0.00 | 42 | 1017.0 |
| 20260904094858 | 27 | 310 | 11.3 | 0.0 | 0.00 | 0.00 | 0.00 | 45 | 1017.0 |
| 20260904093400 | 27 | 310 | 11.3 | 0.0 | 0.00 | 0.00 | 0.00 | 45 | 1017.0 |
| 20260904091859 | 27 | 310 | 11.3 | 0.0 | 0.00 | 0.00 | 0.00 | 45 | 1017.0 |
| 20260904090359 | 27 | 310 | 11.3 | 0.0 | 0.00 | 0.00 | 0.00 | 45 | 1017.0 |
| 20260904084900 | 23 | 290 | 11.3 | 0.0 | 0.00 | 0.00 | 0.00 | 54 | 1017.0 |
| 20260904083400 | 23 | 290 | 11.3 | 0.0 | 0.00 | 0.00 | 0.00 | 54 | 1017.0 |
| 20260904081903 | 23 | 290 | 11.3 | 0.0 | 0.00 | 0.00 | 0.00 | 54 | 1017.0 |
| 20260904080401 | 23 | 290 | 11.3 | 0.0 | 0.00 | 0.00 | 0.00 | 54 | 1017.0 |
| 20260904075021 | -17 | 0.0 | 0.0 | 0.00 | 0.00 | 0.00 | |||
| 20260904073401 | 22 | 280 | 11.3 | 0.0 | 0.00 | 0.00 | 0.00 | 61 | 1017.0 |
| 20260904071859 | 22 | 280 | 11.3 | 0.0 | 0.00 | 0.00 | 0.00 | 61 | 1017.0 |
| 20260904070400 | 22 | 280 | 11.3 | 0.0 | 0.00 | 0.00 | 0.00 | 61 | 1017.0 |
| 20260904064900 | 17 | 280 | 11.3 | 0.0 | 0.00 | 0.00 | 0.00 | 73 | 1017.0 |
| 20260904063400 | 17 | 280 | 11.3 | 0.0 | 0.00 | 0.00 | 0.00 | 73 | 1017.0 |
| 20260904061901 | 17 | 280 | 11.3 | 0.0 | 0.00 | 0.00 | 0.00 | 73 | 1017.0 |
| 20260904060400 | 17 | 280 | 11.3 | 0.0 | 0.00 | 0.00 | 0.00 | 73 | 1017.0 |
| 20260904054900 | 17 | 40 | 8.0 | 0.0 | 0.00 | 0.00 | 0.00 | 77 | 1016.0 |
| 20260904053400 | 17 | 40 | 8.0 | 0.0 | 0.00 | 0.00 | 0.00 | 77 | 1016.0 |
| 20260904051900 | 17 | 40 | 8.0 | 0.0 | 0.00 | 0.00 | 0.00 | 77 | 1016.0 |
| 20260904050400 | 17 | 40 | 8.0 | 0.0 | 0.00 | 0.00 | 0.00 | 77 | 1016.0 |
| 20260904044900 | 13 | 330 | 9.7 | 0.0 | 0.00 | 0.00 | 0.00 | 82 | 1016.0 |
| 20260904043401 | 13 | 330 | 9.7 | 0.0 | 0.00 | 0.00 | 0.00 | 82 | 1016.0 |
| 20260904041857 | 13 | 330 | 9.7 | 0.0 | 0.00 | 0.00 | 0.00 | 82 | 1016.0 |
| 20260904040400 | 13 | 330 | 9.7 | 0.0 | 0.00 | 0.00 | 0.00 | 82 | 1016.0 |
| 20260904034856 | 13 | 260 | 17.7 | 0.0 | 0.00 | 0.00 | 0.00 | 88 | 1016.0 |
| 20260904033400 | 13 | 260 | 17.7 | 0.0 | 0.00 | 0.00 | 0.00 | 88 | 1016.0 |
| 20260904031900 | 13 | 260 | 17.7 | 0.0 | 0.00 | 0.00 | 0.00 | 88 | 1016.0 |
| 20260904030359 | 13 | 260 | 17.7 | 0.0 | 0.00 | 0.00 | 0.00 | 88 | 1016.0 |
| 20260904024854 | 17 | 8.0 | 0.0 | 0.00 | 0.00 | 0.00 | 100 | 1016.0 | |
| 20260904023400 | -17 | 0.0 | 0.0 | 0.00 | 0.00 | 0.00 | |||
| 20260904021856 | -17 | 0.0 | 0.0 | 0.00 | 0.00 | 0.00 | |||
| 20260904020400 | -17 | 0.0 | 0.0 | 0.00 | 0.00 | 0.00 | |||
| 20260904014933 | -17 | 0.0 | 0.0 | 0.00 | 0.00 | 0.00 | |||
| 20260904013400 | -17 | 0.0 | 0.0 | 0.00 | 0.00 | 0.00 | |||
| 20260904011900 | -17 | 0.0 | 0.0 | 0.00 | 0.00 | 0.00 | |||
| 20260904010400 | -17 | 0.0 | 0.0 | 0.00 | 0.00 | 0.00 | |||
| 20260904004858 | 17 | 4.8 | 0.0 | 0.00 | 0.00 | 0.00 | 88 | 1016.0 | |
| 20260904003400 | 17 | 4.8 | 0.0 | 0.00 | 0.00 | 0.00 | 88 | 1016.0 | |
| 20260904001859 | 17 | 4.8 | 0.0 | 0.00 | 0.00 | 0.00 | 88 | 1016.0 | |
| 20260904000403 | 17 | 4.8 | 0.0 | 0.00 | 0.00 | 0.00 | 88 | 1016.0 | |
| 20260903234900 | -17 | 0.0 | 0.0 | 0.00 | 0.00 | 0.00 | |||
| 20260903233359 | -17 | 0.0 | 0.0 | 0.00 | 0.00 | 0.00 | |||
| 20260903231922 | -17 | 0.0 | 0.0 | 0.00 | 0.00 | 0.00 | |||
| 20260903230357 | -17 | 0.0 | 0.0 | 0.00 | 0.00 | 0.00 | |||
| 20260903224857 | -17 | 0.0 | 0.0 | 0.00 | 0.00 | 0.00 | |||
| 20260903223359 | -17 | 0.0 | 0.0 | 0.00 | 0.00 | 0.00 | |||
| 20260903221900 | -17 | 0.0 | 0.0 | 0.00 | 0.00 | 0.00 | |||
| 20260903220400 | -17 | 0.0 | 0.0 | 0.00 | 0.00 | 0.00 | |||
| 20260903214859 | 20 | 4.8 | 0.0 | 0.00 | 0.00 | 0.00 | 60 | 1017.0 | |
| 20260903213408 | 20 | 4.8 | 0.0 | 0.00 | 0.00 | 0.00 | 60 | 1017.0 | |
| 20260903211903 | 20 | 4.8 | 0.0 | 0.00 | 0.00 | 0.00 | 60 | 1017.0 | |
| 20260903210401 | 20 | 4.8 | 0.0 | 0.00 | 0.00 | 0.00 | 60 | 1017.0 | |
| 20260903205018 | -17 | 0.0 | 0.0 | 0.00 | 0.00 | 0.00 | |||
| 20260903203400 | 21 | 80 | 8.0 | 0.0 | 0.00 | 0.00 | 0.00 | 53 | 1016.0 |
| 20260903201900 | 21 | 80 | 8.0 | 0.0 | 0.00 | 0.00 | 0.00 | 53 | 1016.0 |
| 20260903200400 | 21 | 80 | 8.0 | 0.0 | 0.00 | 0.00 | 0.00 | 53 | 1016.0 |